Time,TemperatureF,DewpointF,PressureIn,WindDirection,WindDirectionDegrees,WindSpeedMPH,WindSpeedGustMPH,Humidity,HourlyPrecipIn,Conditions,Clouds,dailyrainin,SoftwareType,DateUTC
2013-01-11 00:03:00,47.2,42.9,30.09,SSE,158,4.0,9.0,85,0.00,,---,0.00,VWS V14.01,2013-01-11 05:03:00,
2013-01-11 00:05:00,47.3,43.0,30.08,SSE,157,11.0,11.0,85,0.00,,---,0.00,VWS V14.01,2013-01-11 05:05:00,
2013-01-11 00:07:00,47.4,43.1,30.08,SSE,148,5.0,8.0,85,0.00,,---,0.00,VWS V14.01,2013-01-11 05:07:00,
2013-01-11 00:10:00,47.4,43.1,30.09,SSE,148,7.0,9.0,85,0.00,,---,0.00,VWS V14.01,2013-01-11 05:10:00,
2013-01-11 00:15:00,47.4,43.1,30.08,SSE,163,5.0,5.0,85,0.00,,---,0.00,VWS V14.01,2013-01-11 05:15:00,
2013-01-11 00:20:00,47.3,43.0,30.08,SE,136,6.0,7.0,85,0.00,,---,0.00,VWS V14.01,2013-01-11 05:20:00,
2013-01-11 00:25:00,47.2,42.9,30.08,SSE,147,6.0,8.0,85,0.00,,---,0.00,VWS V14.01,2013-01-11 05:25:00,
2013-01-11 00:31:00,47.3,43.3,30.08,SE,134,0.0,9.0,86,0.00,,---,0.00,VWS V14.01,2013-01-11 05:31:00,
2013-01-11 00:36:00,47.4,43.4,30.08,South,171,4.0,7.0,86,0.00,,---,0.00,VWS V14.01,2013-01-11 05:36:00,
2013-01-11 00:42:00,47.6,43.3,30.07,SE,126,6.0,7.0,85,0.00,,---,0.00,VWS V14.01,2013-01-11 05:42:00,
2013-01-11 00:47:00,47.6,43.3,30.07,SSE,153,2.0,8.0,85,0.00,,---,0.00,VWS V14.01,2013-01-11 05:47:00,
2013-01-11 00:52:00,47.6,43.6,30.07,SSE,156,6.0,7.0,86,0.00,,---,0.00,VWS V14.01,2013-01-11 05:52:00,
2013-01-11 00:58:00,47.8,43.8,30.07,SE,143,7.0,9.0,86,0.00,,---,0.00,VWS V14.01,2013-01-11 05:58:00,
2013-01-11 01:03:00,48.0,44.0,30.06,SSE,167,2.0,9.0,86,0.00,,---,0.00,VWS V14.01,2013-01-11 06:03:00,
2013-01-11 01:08:00,48.2,44.2,30.07,SE,145,6.0,9.0,86,0.00,,---,0.00,VWS V14.01,2013-01-11 06:08:00,
2013-01-11 01:13:00,48.3,44.3,30.06,SE,142,4.0,5.0,86,0.00,,---,0.00,VWS V14.01,2013-01-11 06:13:00,
2013-01-11 01:18:00,48.4,44.1,30.06,SSE,153,1.0,7.0,85,0.00,,---,0.00,VWS V14.01,2013-01-11 06:18:00,
2013-01-11 01:23:00,48.4,44.4,30.06,SSE,155,2.0,4.0,86,0.00,,---,0.00,VWS V14.01,2013-01-11 06:23:00,
2013-01-11 01:28:00,48.5,44.5,30.06,SSE,151,5.0,9.0,86,0.00,,---,0.00,VWS V14.01,2013-01-11 06:28:00,
2013-01-11 01:33:00,48.7,44.7,30.06,SSE,161,7.0,7.0,86,0.00,,---,0.00,VWS V14.01,2013-01-11 06:33:00,
2013-01-11 01:38:00,48.7,44.7,30.05,SE,136,7.0,11.0,86,0.00,,---,0.00,VWS V14.01,2013-01-11 06:38:00,
2013-01-11 01:43:00,48.7,44.7,30.05,SSE,162,5.0,8.0,86,0.00,,---,0.00,VWS V14.01,2013-01-11 06:43:00,
2013-01-11 01:48:00,48.7,44.7,30.05,South,169,0.0,5.0,86,0.00,,---,0.00,VWS V14.01,2013-01-11 06:48:00,
2013-01-11 01:53:00,48.7,44.7,30.05,SSE,153,8.0,9.0,86,0.00,,---,0.00,VWS V14.01,2013-01-11 06:53:00,
2013-01-11 01:58:00,48.8,44.8,30.05,SSE,154,5.0,8.0,86,0.00,,---,0.00,VWS V14.01,2013-01-11 06:58:00,
2013-01-11 02:03:00,48.9,44.9,30.04,SE,132,13.0,13.0,86,0.00,,---,0.00,VWS V14.01,2013-01-11 07:03:00,
2013-01-11 02:08:00,49.0,45.0,30.04,SE,140,0.0,6.0,86,0.00,,---,0.00,VWS V14.01,2013-01-11 07:08:00,
2013-01-11 02:13:00,49.0,45.0,30.04,SE,137,4.0,7.0,86,0.00,,---,0.00,VWS V14.01,2013-01-11 07:13:00,
2013-01-11 02:18:00,49.1,45.1,30.04,SE,139,5.0,10.0,86,0.00,,---,0.00,VWS V14.01,2013-01-11 07:18:00,
2013-01-11 02:23:00,49.2,45.5,30.04,SE,136,8.0,8.0,87,0.00,,---,0.00,VWS V14.01,2013-01-11 07:23:00,
2013-01-11 02:28:00,49.2,45.8,30.04,SE,128,8.0,12.0,88,0.00,,---,0.00,VWS V14.01,2013-01-11 07:28:00,
2013-01-11 02:33:00,49.2,45.8,30.03,SSE,163,8.0,9.0,88,0.00,,---,0.00,VWS V14.01,2013-01-11 07:33:00,
2013-01-11 02:38:00,49.2,45.8,30.03,South,169,5.0,10.0,88,0.00,,---,0.00,VWS V14.01,2013-01-11 07:38:00,
2013-01-11 02:43:00,49.1,45.7,30.03,SE,139,7.0,9.0,88,0.00,,---,0.00,VWS V14.01,2013-01-11 07:43:00,
2013-01-11 02:48:00,49.0,45.9,30.03,SSE,148,5.0,9.0,89,0.00,,---,0.00,VWS V14.01,2013-01-11 07:48:00,
2013-01-11 02:53:00,48.9,46.1,30.02,SSE,164,8.0,13.0,90,0.01,,---,0.01,VWS V14.01,2013-01-11 07:53:00,
2013-01-11 02:58:00,48.8,46.0,30.02,SE,142,12.0,17.0,90,0.01,,---,0.01,VWS V14.01,2013-01-11 07:58:00,
2013-01-11 03:03:00,48.9,46.4,30.02,SE,132,8.0,13.0,91,0.01,,---,0.01,VWS V14.01,2013-01-11 08:03:00,
2013-01-11 03:08:00,49.0,46.5,30.02,South,169,2.0,7.0,91,0.01,,---,0.01,VWS V14.01,2013-01-11 08:08:00,
2013-01-11 03:13:00,49.2,46.7,30.02,SE,138,6.0,9.0,91,0.01,,---,0.01,VWS V14.01,2013-01-11 08:13:00,
2013-01-11 03:18:00,49.3,46.8,30.02,SSE,167,7.0,8.0,91,0.02,,---,0.02,VWS V14.01,2013-01-11 08:18:00,
2013-01-11 03:23:00,49.4,47.2,30.02,South,171,5.0,9.0,92,0.03,,---,0.03,VWS V14.01,2013-01-11 08:23:00,
2013-01-11 03:28:00,49.4,47.2,30.01,SSE,166,5.0,7.0,92,0.04,,---,0.04,VWS V14.01,2013-01-11 08:28:00,
2013-01-11 03:33:00,49.4,47.5,30.01,SE,145,11.0,13.0,93,0.04,,---,0.04,VWS V14.01,2013-01-11 08:33:00,
2013-01-11 03:38:00,49.6,47.7,30.01,SSE,155,8.0,9.0,93,0.04,,---,0.04,VWS V14.01,2013-01-11 08:38:00,
2013-01-11 03:43:00,49.7,48.0,30.00,South,174,4.0,10.0,94,0.05,,---,0.05,VWS V14.01,2013-01-11 08:43:00,
2013-01-11 03:48:00,50.0,48.3,30.00,SE,127,8.0,8.0,94,0.05,,---,0.05,VWS V14.01,2013-01-11 08:48:00,
2013-01-11 03:53:00,50.3,48.6,29.99,South,173,2.0,10.0,94,0.04,,---,0.05,VWS V14.01,2013-01-11 08:53:00,
2013-01-11 03:58:00,50.5,48.8,29.99,South,178,8.0,12.0,94,0.05,,---,0.06,VWS V14.01,2013-01-11 08:58:00,
2013-01-11 04:03:00,50.8,49.1,29.99,South,169,8.0,12.0,94,0.06,,---,0.07,VWS V14.01,2013-01-11 09:03:00,
2013-01-11 04:08:00,51.0,49.3,29.98,SSE,159,5.0,6.0,94,0.07,,---,0.08,VWS V14.01,2013-01-11 09:08:00,
2013-01-11 04:13:00,51.0,49.3,29.97,SSE,163,6.0,12.0,94,0.08,,---,0.09,VWS V14.01,2013-01-11 09:13:00,
2013-01-11 04:18:00,51.1,49.4,29.97,SSE,157,6.0,8.0,94,0.07,,---,0.09,VWS V14.01,2013-01-11 09:18:00,
2013-01-11 04:23:00,51.2,49.8,29.97,SSE,150,6.0,10.0,95,0.06,,---,0.09,VWS V14.01,2013-01-11 09:23:00,
2013-01-11 04:28:00,51.3,49.6,29.97,South,171,4.0,12.0,94,0.05,,---,0.09,VWS V14.01,2013-01-11 09:28:00,
2013-01-11 04:33:00,51.5,49.8,29.96,SSE,148,10.0,13.0,94,0.05,,---,0.09,VWS V14.01,2013-01-11 09:33:00,
2013-01-11 04:38:00,51.8,50.1,29.96,SSE,164,7.0,15.0,94,0.05,,---,0.09,VWS V14.01,2013-01-11 09:38:00,
2013-01-11 04:43:00,52.0,50.3,29.95,SSE,149,7.0,15.0,94,0.04,,---,0.09,VWS V14.01,2013-01-11 09:43:00,
2013-01-11 04:48:00,52.3,50.6,29.95,SSE,159,10.0,11.0,94,0.04,,---,0.09,VWS V14.01,2013-01-11 09:48:00,
2013-01-11 04:53:00,52.7,50.7,29.94,SSE,161,19.0,19.0,93,0.04,,---,0.09,VWS V14.01,2013-01-11 09:53:00,
2013-01-11 04:58:00,52.8,50.5,29.94,SSE,157,5.0,19.0,92,0.03,,---,0.09,VWS V14.01,2013-01-11 09:58:00,
2013-01-11 05:03:00,52.9,50.6,29.94,SSE,160,7.0,13.0,92,0.02,,---,0.09,VWS V14.01,2013-01-11 10:03:00,
2013-01-11 05:08:00,53.0,50.7,29.94,SSE,160,6.0,11.0,92,0.01,,---,0.09,VWS V14.01,2013-01-11 10:08:00,
2013-01-11 05:13:00,53.1,50.5,29.93,SSE,168,10.0,12.0,91,0.00,,---,0.09,VWS V14.01,2013-01-11 10:13:00,
2013-01-11 05:18:00,53.3,50.7,29.93,SSE,161,9.0,16.0,91,0.00,,---,0.09,VWS V14.01,2013-01-11 10:18:00,
2013-01-11 05:23:00,53.3,50.7,29.92,South,173,12.0,17.0,91,0.00,,---,0.09,VWS V14.01,2013-01-11 10:23:00,
2013-01-11 05:28:00,53.3,50.7,29.92,South,176,7.0,8.0,91,0.00,,---,0.09,VWS V14.01,2013-01-11 10:28:00,
2013-01-11 05:33:00,53.4,50.8,29.92,South,176,7.0,17.0,91,0.00,,---,0.09,VWS V14.01,2013-01-11 10:33:00,
2013-01-11 05:38:00,53.6,51.0,29.91,South,184,6.0,16.0,91,0.01,,---,0.10,VWS V14.01,2013-01-11 10:38:00,
2013-01-11 05:43:00,53.6,51.0,29.91,South,171,7.0,13.0,91,0.01,,---,0.10,VWS V14.01,2013-01-11 10:43:00,
2013-01-11 05:48:00,53.7,51.1,29.91,SE,142,9.0,13.0,91,0.01,,---,0.10,VWS V14.01,2013-01-11 10:48:00,
2013-01-11 05:53:00,54.0,51.4,29.91,South,178,6.0,15.0,91,0.01,,---,0.10,VWS V14.01,2013-01-11 10:53:00,
2013-01-11 05:58:00,54.1,51.5,29.90,SSE,147,6.0,9.0,91,0.01,,---,0.10,VWS V14.01,2013-01-11 10:58:00,
2013-01-11 06:03:00,54.3,51.4,29.91,SSW,194,7.0,15.0,90,0.02,,---,0.11,VWS V14.01,2013-01-11 11:03:00,
2013-01-11 06:08:00,54.3,51.4,29.91,SSE,159,4.0,7.0,90,0.02,,---,0.11,VWS V14.01,2013-01-11 11:08:00,
2013-01-11 06:13:00,54.3,51.7,29.91,SSE,157,6.0,10.0,91,0.03,,---,0.12,VWS V14.01,2013-01-11 11:13:00,
2013-01-11 06:18:00,54.2,51.6,29.91,South,185,6.0,13.0,91,0.03,,---,0.12,VWS V14.01,2013-01-11 11:18:00,
2013-01-11 06:23:00,54.2,51.6,29.91,SSE,167,7.0,9.0,91,0.05,,---,0.14,VWS V14.01,2013-01-11 11:23:00,
2013-01-11 06:28:00,54.1,51.8,29.90,SSE,148,12.0,12.0,92,0.07,,---,0.16,VWS V14.01,2013-01-11 11:28:00,
2013-01-11 06:33:00,53.9,51.6,29.91,South,189,6.0,15.0,92,0.09,,---,0.18,VWS V14.01,2013-01-11 11:33:00,
2013-01-11 06:38:00,53.9,51.9,29.90,South,170,10.0,12.0,93,0.10,,---,0.20,VWS V14.01,2013-01-11 11:38:00,
2013-01-11 06:43:00,53.9,51.9,29.90,South,184,6.0,9.0,93,0.12,,---,0.22,VWS V14.01,2013-01-11 11:43:00,
2013-01-11 06:48:00,53.8,51.8,29.89,SSE,167,8.0,12.0,93,0.14,,---,0.24,VWS V14.01,2013-01-11 11:48:00,
2013-01-11 06:53:00,53.7,51.7,29.89,SSE,167,6.0,13.0,93,0.16,,---,0.26,VWS V14.01,2013-01-11 11:53:00,
2013-01-11 06:59:00,53.6,51.9,29.89,South,178,7.0,8.0,94,0.18,,---,0.28,VWS V14.01,2013-01-11 11:59:00,
2013-01-11 07:04:00,53.6,51.9,29.90,SSW,195,6.0,10.0,94,0.17,,---,0.28,VWS V14.01,2013-01-11 12:04:00,
2013-01-11 07:09:00,53.5,51.8,29.90,South,189,5.0,8.0,94,0.18,,---,0.29,VWS V14.01,2013-01-11 12:09:00,
2013-01-11 07:15:00,53.6,51.9,29.94,West,265,4.0,7.0,94,0.19,,---,0.31,VWS V14.01,2013-01-11 12:15:00,
2013-01-11 07:20:00,53.6,52.2,29.94,SSW,207,2.0,4.0,95,0.19,,---,0.32,VWS V14.01,2013-01-11 12:20:00,
2013-01-11 07:25:00,53.5,52.1,29.93,South,183,5.0,8.0,95,0.19,,---,0.33,VWS V14.01,2013-01-11 12:25:00,
2013-01-11 07:30:00,53.5,52.1,29.93,SSE,168,6.0,7.0,95,0.18,,---,0.34,VWS V14.01,2013-01-11 12:30:00,
2013-01-11 07:35:00,53.4,52.0,29.93,South,178,4.0,7.0,95,0.16,,---,0.34,VWS V14.01,2013-01-11 12:35:00,
2013-01-11 07:40:00,53.4,52.3,29.92,South,172,4.0,7.0,96,0.15,,---,0.35,VWS V14.01,2013-01-11 12:40:00,
2013-01-11 07:45:00,53.4,52.3,29.92,South,181,3.0,6.0,96,0.12,,---,0.35,VWS V14.01,2013-01-11 12:45:00,
2013-01-11 07:50:00,53.7,52.6,29.93,South,177,5.0,7.0,96,0.11,,---,0.36,VWS V14.01,2013-01-11 12:50:00,
2013-01-11 07:55:00,54.0,52.9,29.94,South,190,4.0,6.0,96,0.10,,---,0.36,VWS V14.01,2013-01-11 12:55:00,
2013-01-11 08:00:00,54.2,53.1,29.95,SSW,208,2.0,3.0,96,0.12,,---,0.40,VWS V14.01,2013-01-11 13:00:00,
2013-01-11 08:05:00,54.4,53.6,29.94,SW,222,2.0,4.0,97,0.15,,---,0.43,VWS V14.01,2013-01-11 13:05:00,
2013-01-11 08:10:00,54.6,53.8,29.93,SSW,200,3.0,4.0,97,0.17,,---,0.46,VWS V14.01,2013-01-11 13:10:00,
2013-01-11 08:15:00,54.7,53.9,29.93,South,186,1.0,5.0,97,0.18,,---,0.49,VWS V14.01,2013-01-11 13:15:00,
2013-01-11 08:20:00,54.9,54.1,29.93,SSW,198,6.0,6.0,97,0.19,,---,0.51,VWS V14.01,2013-01-11 13:20:00,
2013-01-11 08:25:00,55.1,54.3,29.93,SSW,193,4.0,7.0,97,0.19,,---,0.52,VWS V14.01,2013-01-11 13:25:00,
2013-01-11 08:30:00,55.1,54.3,29.92,South,179,4.0,7.0,97,0.19,,---,0.53,VWS V14.01,2013-01-11 13:30:00,
2013-01-11 08:35:00,55.2,54.4,29.93,South,176,2.0,5.0,97,0.20,,---,0.54,VWS V14.01,2013-01-11 13:35:00,
2013-01-11 08:40:00,55.1,54.3,29.92,South,177,2.0,5.0,97,0.19,,---,0.54,VWS V14.01,2013-01-11 13:40:00,
2013-01-11 08:45:00,55.2,54.4,29.92,South,185,4.0,5.0,97,0.19,,---,0.54,VWS V14.01,2013-01-11 13:45:00,
2013-01-11 08:50:00,55.2,54.4,29.93,South,185,0.0,4.0,97,0.18,,---,0.54,VWS V14.01,2013-01-11 13:50:00,
2013-01-11 08:55:00,55.1,54.3,29.93,South,188,2.0,5.0,97,0.18,,---,0.54,VWS V14.01,2013-01-11 13:55:00,
2013-01-11 09:00:00,55.0,54.2,29.94,SW,215,3.0,4.0,97,0.15,,---,0.54,VWS V14.01,2013-01-11 14:00:00,
2013-01-11 09:05:00,55.0,54.2,29.93,South,190,2.0,5.0,97,0.12,,---,0.54,VWS V14.01,2013-01-11 14:05:00,
2013-01-11 09:10:00,55.1,54.3,29.94,SSW,193,4.0,6.0,97,0.08,,---,0.54,VWS V14.01,2013-01-11 14:10:00,
2013-01-11 09:15:00,55.1,54.3,29.94,SSW,194,3.0,4.0,97,0.06,,---,0.54,VWS V14.01,2013-01-11 14:15:00,
2013-01-11 09:20:00,55.1,54.3,29.94,SSW,192,0.0,3.0,97,0.03,,---,0.54,VWS V14.01,2013-01-11 14:20:00,
2013-01-11 09:25:00,55.0,54.2,29.94,South,182,1.0,3.0,97,0.02,,---,0.54,VWS V14.01,2013-01-11 14:25:00,
2013-01-11 09:30:00,55.1,54.3,29.94,South,186,3.0,4.0,97,0.01,,---,0.54,VWS V14.01,2013-01-11 14:30:00,
2013-01-11 09:35:00,55.2,54.4,29.94,SW,217,5.0,7.0,97,0.00,,---,0.54,VWS V14.01,2013-01-11 14:35:00,
2013-01-11 09:40:00,55.3,54.5,29.94,SSW,213,3.0,6.0,97,0.00,,---,0.54,VWS V14.01,2013-01-11 14:40:00,
2013-01-11 09:45:00,55.5,54.7,29.94,SW,223,0.0,5.0,97,0.00,,---,0.54,VWS V14.01,2013-01-11 14:45:00,
2013-01-11 09:50:00,55.6,54.8,29.94,SSW,202,0.0,3.0,97,0.00,,---,0.54,VWS V14.01,2013-01-11 14:50:00,
2013-01-11 09:55:00,55.7,54.9,29.94,WSW,246,2.0,4.0,97,0.00,,---,0.54,VWS V14.01,2013-01-11 14:55:00,
2013-01-11 10:00:00,55.8,55.0,29.94,West,259,1.0,8.0,97,0.00,,---,0.54,VWS V14.01,2013-01-11 15:00:00,
2013-01-11 10:05:00,55.9,55.1,29.95,West,259,1.0,6.0,97,0.00,,---,0.54,VWS V14.01,2013-01-11 15:05:00,
2013-01-11 10:10:00,55.9,54.8,29.95,West,278,3.0,6.0,96,0.00,,---,0.54,VWS V14.01,2013-01-11 15:10:00,
2013-01-11 10:15:00,56.0,54.9,29.94,West,260,3.0,3.0,96,0.00,,---,0.54,VWS V14.01,2013-01-11 15:15:00,
2013-01-11 10:20:00,56.0,54.9,29.94,West,265,4.0,9.0,96,0.00,,---,0.54,VWS V14.01,2013-01-11 15:20:00,
2013-01-11 10:25:00,56.0,54.6,29.95,WSW,251,5.0,5.0,95,0.00,,---,0.54,VWS V14.01,2013-01-11 15:25:00,
2013-01-11 10:30:00,56.2,54.8,29.95,WSW,240,5.0,6.0,95,0.00,,---,0.54,VWS V14.01,2013-01-11 15:30:00,
2013-01-11 10:35:00,56.3,54.9,29.95,WSW,252,2.0,4.0,95,0.00,,---,0.54,VWS V14.01,2013-01-11 15:35:00,
2013-01-11 10:40:00,56.4,54.7,29.95,WSW,253,5.0,8.0,94,0.00,,---,0.54,VWS V14.01,2013-01-11 15:40:00,
2013-01-11 10:45:00,56.7,55.0,29.95,WSW,252,8.0,10.0,94,0.00,,---,0.54,VWS V14.01,2013-01-11 15:45:00,
2013-01-11 10:50:00,56.9,54.9,29.95,West,275,4.0,8.0,93,0.00,,---,0.54,VWS V14.01,2013-01-11 15:50:00,
2013-01-11 10:55:00,56.9,54.6,29.96,WSW,252,5.0,5.0,92,0.00,,---,0.54,VWS V14.01,2013-01-11 15:55:00,
2013-01-11 11:00:00,57.0,54.7,29.96,WSW,252,3.0,6.0,92,0.00,,---,0.54,VWS V14.01,2013-01-11 16:00:00,
2013-01-11 11:05:00,57.0,54.4,29.95,SW,236,2.0,6.0,91,0.00,,---,0.54,VWS V14.01,2013-01-11 16:05:00,
2013-01-11 11:10:00,57.0,54.1,29.96,West,281,4.0,5.0,90,0.00,,---,0.54,VWS V14.01,2013-01-11 16:10:00,
2013-01-11 11:15:00,56.9,54.0,29.96,WSW,244,6.0,9.0,90,0.00,,---,0.54,VWS V14.01,2013-01-11 16:15:00,
2013-01-11 11:20:00,57.0,54.1,29.95,WSW,255,4.0,9.0,90,0.00,,---,0.54,VWS V14.01,2013-01-11 16:20:00,
2013-01-11 11:25:00,57.0,53.8,29.95,WSW,258,4.0,11.0,89,0.00,,---,0.54,VWS V14.01,2013-01-11 16:25:00,
2013-01-11 11:30:00,57.0,53.5,29.95,WSW,249,7.0,7.0,88,0.00,,---,0.54,VWS V14.01,2013-01-11 16:30:00,
2013-01-11 11:35:00,57.0,53.5,29.95,West,274,8.0,9.0,88,0.00,,---,0.54,VWS V14.01,2013-01-11 16:35:00,
2013-01-11 11:40:00,57.2,53.7,29.95,West,272,5.0,5.0,88,0.00,,---,0.54,VWS V14.01,2013-01-11 16:40:00,
2013-01-11 11:45:00,57.3,53.8,29.95,WSW,250,4.0,6.0,88,0.00,,---,0.54,VWS V14.01,2013-01-11 16:45:00,
2013-01-11 11:50:00,57.4,53.6,29.94,WSW,256,7.0,9.0,87,0.00,,---,0.54,VWS V14.01,2013-01-11 16:50:00,
2013-01-11 11:55:00,57.4,53.6,29.94,WSW,253,5.0,8.0,87,0.00,,---,0.54,VWS V14.01,2013-01-11 16:55:00,
2013-01-11 12:00:00,57.5,53.7,29.94,WSW,240,4.0,5.0,87,0.00,,---,0.54,VWS V14.01,2013-01-11 17:00:00,
2013-01-11 12:05:00,57.7,53.5,29.94,SW,232,3.0,7.0,86,0.00,,---,0.54,VWS V14.01,2013-01-11 17:05:00,
2013-01-11 12:10:00,57.9,53.4,29.94,WSW,254,4.0,9.0,85,0.00,,---,0.54,VWS V14.01,2013-01-11 17:10:00,
2013-01-11 12:15:00,58.0,53.5,29.94,WSW,244,3.0,6.0,85,0.00,,---,0.54,VWS V14.01,2013-01-11 17:15:00,
2013-01-11 12:20:00,58.0,53.5,29.94,SW,235,5.0,7.0,85,0.00,,---,0.54,VWS V14.01,2013-01-11 17:20:00,
2013-01-11 12:25:00,58.0,53.2,29.93,WSW,244,4.0,7.0,84,0.00,,---,0.54,VWS V14.01,2013-01-11 17:25:00,
2013-01-11 12:30:00,58.0,52.9,29.93,WNW,300,4.0,7.0,83,0.00,,---,0.54,VWS V14.01,2013-01-11 17:30:00,
2013-01-11 12:35:00,58.1,53.0,29.93,West,269,3.0,9.0,83,0.00,,---,0.54,VWS V14.01,2013-01-11 17:35:00,
2013-01-11 12:40:00,58.2,53.1,29.93,West,263,7.0,10.0,83,0.00,,---,0.54,VWS V14.01,2013-01-11 17:40:00,
2013-01-11 12:45:00,58.2,53.4,29.93,West,262,0.0,4.0,84,0.00,,---,0.54,VWS V14.01,2013-01-11 17:45:00,
2013-01-11 12:50:00,58.3,53.2,29.93,West,277,5.0,6.0,83,0.00,,---,0.54,VWS V14.01,2013-01-11 17:50:00,
2013-01-11 12:55:00,58.3,53.2,29.93,West,273,4.0,6.0,83,0.00,,---,0.54,VWS V14.01,2013-01-11 17:55:00,
2013-01-11 13:00:00,58.4,53.3,29.93,WNW,288,4.0,8.0,83,0.00,,---,0.54,VWS V14.01,2013-01-11 18:00:00,
2013-01-11 13:05:00,58.7,52.9,29.93,SW,221,7.0,14.0,81,0.00,,---,0.54,VWS V14.01,2013-01-11 18:05:00,
2013-01-11 13:10:00,59.1,52.9,29.93,SW,225,4.0,6.0,80,0.00,,---,0.54,VWS V14.01,2013-01-11 18:10:00,
2013-01-11 13:15:00,59.3,52.5,29.92,WSW,240,5.0,6.0,78,0.00,,---,0.54,VWS V14.01,2013-01-11 18:15:00,
2013-01-11 13:20:00,59.6,52.7,29.93,West,271,6.0,11.0,78,0.00,,---,0.54,VWS V14.01,2013-01-11 18:20:00,
2013-01-11 13:25:00,59.9,53.0,29.92,West,260,13.0,13.0,78,0.00,,---,0.54,VWS V14.01,2013-01-11 18:25:00,
2013-01-11 13:30:00,60.0,53.1,29.92,SSW,211,2.0,8.0,78,0.00,,---,0.54,VWS V14.01,2013-01-11 18:30:00,
2013-01-11 13:35:00,60.2,53.7,29.92,SSE,157,4.0,8.0,79,0.00,,---,0.54,VWS V14.01,2013-01-11 18:35:00,
2013-01-11 13:40:00,60.5,53.3,29.92,WSW,258,3.0,6.0,77,0.00,,---,0.54,VWS V14.01,2013-01-11 18:40:00,
2013-01-11 13:45:00,60.3,53.1,29.92,West,271,4.0,6.0,77,0.00,,---,0.54,VWS V14.01,2013-01-11 18:45:00,
2013-01-11 13:50:00,60.5,53.6,29.92,West,261,0.0,3.0,78,0.00,,---,0.54,VWS V14.01,2013-01-11 18:50:00,
2013-01-11 13:55:00,60.8,53.2,29.92,WSW,243,3.0,4.0,76,0.00,,---,0.54,VWS V14.01,2013-01-11 18:55:00,
2013-01-11 14:00:00,61.1,53.5,29.92,WSW,254,6.0,7.0,76,0.00,,---,0.54,VWS V14.01,2013-01-11 19:00:00,
2013-01-11 14:05:00,61.1,52.4,29.92,WSW,239,6.0,10.0,73,0.00,,---,0.54,VWS V14.01,2013-01-11 19:05:00,
2013-01-11 14:10:00,60.9,52.6,29.92,WSW,248,4.0,6.0,74,0.00,,---,0.54,VWS V14.01,2013-01-11 19:10:00,
2013-01-11 14:15:00,60.9,52.2,29.93,SW,235,4.0,9.0,73,0.00,,---,0.54,VWS V14.01,2013-01-11 19:15:00,
2013-01-11 14:20:00,60.7,52.0,29.93,SSW,209,4.0,5.0,73,0.00,,---,0.54,VWS V14.01,2013-01-11 19:20:00,
2013-01-11 14:25:00,60.5,51.4,29.93,WSW,242,8.0,9.0,72,0.00,,---,0.54,VWS V14.01,2013-01-11 19:25:00,
2013-01-11 14:30:00,60.4,51.3,29.93,West,264,8.0,8.0,72,0.00,,---,0.54,VWS V14.01,2013-01-11 19:30:00,
2013-01-11 14:35:00,60.3,51.6,29.93,WSW,252,3.0,7.0,73,0.00,,---,0.54,VWS V14.01,2013-01-11 19:35:00,
2013-01-11 14:40:00,60.2,51.5,29.93,WNW,301,2.0,3.0,73,0.00,,---,0.54,VWS V14.01,2013-01-11 19:40:00,
2013-01-11 14:45:00,60.1,51.4,29.94,WSW,252,2.0,11.0,73,0.00,,---,0.54,VWS V14.01,2013-01-11 19:45:00,
2013-01-11 14:50:00,60.2,51.5,29.94,WSW,257,2.0,8.0,73,0.00,,---,0.54,VWS V14.01,2013-01-11 19:50:00,
2013-01-11 14:55:00,60.9,52.6,29.93,WSW,251,4.0,4.0,74,0.00,,---,0.54,VWS V14.01,2013-01-11 19:55:00,
2013-01-11 15:00:00,61.4,52.3,29.93,SW,233,6.0,14.0,72,0.00,,---,0.54,VWS V14.01,2013-01-11 20:00:00,
2013-01-11 15:05:00,61.4,51.9,29.93,WNW,290,8.0,11.0,71,0.00,,---,0.54,VWS V14.01,2013-01-11 20:05:00,
2013-01-11 15:10:00,61.2,51.7,29.93,NW,309,4.0,6.0,71,0.00,,---,0.54,VWS V14.01,2013-01-11 20:10:00,
2013-01-11 15:15:00,61.1,52.0,29.93,SW,234,0.0,4.0,72,0.00,,---,0.54,VWS V14.01,2013-01-11 20:15:00,
2013-01-11 15:20:00,61.1,52.0,29.93,WSW,237,3.0,4.0,72,0.00,,---,0.54,VWS V14.01,2013-01-11 20:20:00,
2013-01-11 15:25:00,60.9,51.8,29.93,WSW,258,4.0,7.0,72,0.00,,---,0.54,VWS V14.01,2013-01-11 20:25:00,
2013-01-11 15:30:00,60.8,51.3,29.93,West,260,5.0,7.0,71,0.00,,---,0.54,VWS V14.01,2013-01-11 20:30:00,
2013-01-11 15:35:00,60.6,51.5,29.93,SSW,209,0.0,4.0,72,0.00,,---,0.54,VWS V14.01,2013-01-11 20:35:00,
2013-01-11 15:40:00,60.6,51.5,29.93,WSW,254,5.0,10.0,72,0.00,,---,0.54,VWS V14.01,2013-01-11 20:40:00,
2013-01-11 15:45:00,60.8,51.7,29.93,SSW,209,3.0,9.0,72,0.00,,---,0.54,VWS V14.01,2013-01-11 20:45:00,
2013-01-11 15:50:00,61.1,51.6,29.93,WSW,240,1.0,6.0,71,0.00,,---,0.54,VWS V14.01,2013-01-11 20:50:00,
2013-01-11 15:55:00,61.4,51.9,29.93,West,263,1.0,6.0,71,0.00,,---,0.54,VWS V14.01,2013-01-11 20:55:00,
2013-01-11 16:00:00,61.8,51.9,29.93,West,270,1.0,9.0,70,0.00,,---,0.54,VWS V14.01,2013-01-11 21:00:00,
2013-01-11 16:05:00,62.1,51.4,29.93,WSW,244,3.0,8.0,68,0.00,,---,0.54,VWS V14.01,2013-01-11 21:05:00,
2013-01-11 16:10:00,62.2,51.5,29.94,WSW,254,3.0,6.0,68,0.00,,---,0.54,VWS V14.01,2013-01-11 21:10:00,
2013-01-11 16:15:00,62.2,51.5,29.94,SW,235,3.0,9.0,68,0.00,,---,0.54,VWS V14.01,2013-01-11 21:15:00,
2013-01-11 16:20:00,62.2,51.5,29.94,SW,227,2.0,4.0,68,0.00,,---,0.54,VWS V14.01,2013-01-11 21:20:00,
2013-01-11 16:25:00,62.3,50.8,29.94,WSW,242,4.0,12.0,66,0.00,,---,0.54,VWS V14.01,2013-01-11 21:25:00,
2013-01-11 16:30:00,62.2,51.1,29.94,West,262,5.0,5.0,67,0.00,,---,0.54,VWS V14.01,2013-01-11 21:30:00,
2013-01-11 16:35:00,62.1,51.0,29.94,WSW,248,4.0,5.0,67,0.00,,---,0.54,VWS V14.01,2013-01-11 21:35:00,
2013-01-11 16:40:00,62.0,50.9,29.94,West,261,4.0,7.0,67,0.00,,---,0.54,VWS V14.01,2013-01-11 21:40:00,
2013-01-11 16:45:00,61.8,51.1,29.94,West,266,3.0,4.0,68,0.00,,---,0.54,VWS V14.01,2013-01-11 21:45:00,
2013-01-11 16:50:00,61.6,51.0,29.94,West,266,4.0,4.0,68,0.00,,---,0.54,VWS V14.01,2013-01-11 21:50:00,
2013-01-11 16:55:00,61.3,51.1,29.95,West,261,2.0,4.0,69,0.00,,---,0.54,VWS V14.01,2013-01-11 21:55:00,
2013-01-11 17:00:00,61.1,50.9,29.94,WSW,250,6.0,6.0,69,0.00,,---,0.54,VWS V14.01,2013-01-11 22:00:00,
2013-01-11 17:05:00,60.9,50.7,29.95,WSW,251,4.0,8.0,69,0.00,,---,0.54,VWS V14.01,2013-01-11 22:05:00,
2013-01-11 17:10:00,60.7,50.9,29.95,West,261,2.0,6.0,70,0.00,,---,0.54,VWS V14.01,2013-01-11 22:10:00,
2013-01-11 17:15:00,60.4,50.6,29.94,WSW,258,0.0,1.0,70,0.00,,---,0.54,VWS V14.01,2013-01-11 22:15:00,
2013-01-11 17:20:00,60.2,50.8,29.95,West,264,0.0,1.0,71,0.00,,---,0.54,VWS V14.01,2013-01-11 22:20:00,
2013-01-11 17:25:00,60.0,50.6,29.94,West,264,0.0,1.0,71,0.00,,---,0.54,VWS V14.01,2013-01-11 22:25:00,
2013-01-11 17:30:00,59.7,50.7,29.94,West,264,0.0,0.0,72,0.00,,---,0.54,VWS V14.01,2013-01-11 22:30:00,
2013-01-11 17:35:00,59.3,50.3,29.94,West,264,0.0,1.0,72,0.00,,---,0.54,VWS V14.01,2013-01-11 22:35:00,
2013-01-11 17:40:00,59.0,50.4,29.95,West,264,0.0,0.0,73,0.00,,---,0.54,VWS V14.01,2013-01-11 22:40:00,
2013-01-11 17:45:00,58.9,50.6,29.94,West,264,0.0,0.0,74,0.00,,---,0.54,VWS V14.01,2013-01-11 22:45:00,
2013-01-11 17:50:00,58.6,50.3,29.94,West,264,0.0,0.0,74,0.00,,---,0.54,VWS V14.01,2013-01-11 22:50:00,
2013-01-11 17:55:00,58.2,50.3,29.95,West,264,0.0,0.0,75,0.00,,---,0.54,VWS V14.01,2013-01-11 22:55:00,
2013-01-11 18:00:00,57.9,50.0,29.95,West,264,0.0,0.0,75,0.00,,---,0.54,VWS V14.01,2013-01-11 23:00:00,
2013-01-11 18:05:00,57.5,50.0,29.95,West,264,0.0,0.0,76,0.00,,---,0.54,VWS V14.01,2013-01-11 23:05:00,
2013-01-11 18:10:00,57.1,50.0,29.95,West,264,0.0,0.0,77,0.00,,---,0.54,VWS V14.01,2013-01-11 23:10:00,
2013-01-11 18:15:00,56.6,49.8,29.95,West,264,0.0,0.0,78,0.00,,---,0.54,VWS V14.01,2013-01-11 23:15:00,
2013-01-11 18:20:00,56.3,49.9,29.95,West,264,0.0,0.0,79,0.00,,---,0.54,VWS V14.01,2013-01-11 23:20:00,
2013-01-11 18:25:00,56.1,49.7,29.95,West,264,0.0,0.0,79,0.00,,---,0.54,VWS V14.01,2013-01-11 23:25:00,
2013-01-11 18:30:00,55.8,49.7,29.95,West,264,0.0,0.0,80,0.00,,---,0.54,VWS V14.01,2013-01-11 23:30:00,
2013-01-11 18:35:00,55.5,49.4,29.95,West,264,0.0,0.0,80,0.00,,---,0.54,VWS V14.01,2013-01-11 23:35:00,
2013-01-11 18:40:00,55.3,49.6,29.95,West,264,0.0,0.0,81,0.00,,---,0.54,VWS V14.01,2013-01-11 23:40:00,
2013-01-11 18:45:00,55.0,49.3,29.95,West,264,0.0,0.0,81,0.00,,---,0.54,VWS V14.01,2013-01-11 23:45:00,
2013-01-11 18:50:00,54.6,49.2,29.95,West,264,0.0,0.0,82,0.00,,---,0.54,VWS V14.01,2013-01-11 23:50:00,
2013-01-11 18:55:00,54.6,49.2,29.96,West,264,0.0,0.0,82,0.00,,---,0.54,VWS V14.01,2013-01-11 23:55:00,
2013-01-11 19:00:00,54.4,49.0,29.96,West,264,0.0,0.0,82,0.00,,---,0.54,VWS V14.01,2013-01-12 00:00:00,
2013-01-11 19:05:00,54.4,49.0,29.95,West,264,0.0,1.0,82,0.00,,---,0.54,VWS V14.01,2013-01-12 00:05:00,
2013-01-11 19:10:00,54.1,49.1,29.95,West,264,0.0,0.0,83,0.00,,---,0.54,VWS V14.01,2013-01-12 00:10:00,
2013-01-11 19:15:00,54.0,49.0,29.96,West,264,0.0,0.0,83,0.00,,---,0.54,VWS V14.01,2013-01-12 00:15:00,
2013-01-11 19:20:00,54.0,49.0,29.95,West,264,0.0,0.0,83,0.00,,---,0.54,VWS V14.01,2013-01-12 00:20:00,
2013-01-11 19:25:00,53.9,48.9,29.95,West,264,0.0,0.0,83,0.00,,---,0.54,VWS V14.01,2013-01-12 00:25:00,
2013-01-11 19:30:00,54.0,49.0,29.95,West,264,0.0,0.0,83,0.00,,---,0.54,VWS V14.01,2013-01-12 00:30:00,
2013-01-11 19:35:00,53.9,48.9,29.95,West,264,0.0,0.0,83,0.00,,---,0.54,VWS V14.01,2013-01-12 00:35:00,
2013-01-11 19:40:00,54.0,49.0,29.95,West,264,0.0,0.0,83,0.00,,---,0.54,VWS V14.01,2013-01-12 00:40:00,
2013-01-11 19:45:00,53.8,48.8,29.95,West,264,0.0,0.0,83,0.00,,---,0.54,VWS V14.01,2013-01-12 00:45:00,
2013-01-11 19:50:00,53.7,49.0,29.95,West,264,0.0,0.0,84,0.00,,---,0.54,VWS V14.01,2013-01-12 00:50:00,
2013-01-11 19:55:00,53.9,48.9,29.96,West,264,0.0,0.0,83,0.00,,---,0.54,VWS V14.01,2013-01-12 00:55:00,
2013-01-11 20:00:00,54.2,49.2,29.96,West,264,0.0,0.0,83,0.00,,---,0.54,VWS V14.01,2013-01-12 01:00:00,
2013-01-11 20:05:00,54.3,48.9,29.96,West,264,0.0,0.0,82,0.00,,---,0.54,VWS V14.01,2013-01-12 01:05:00,
2013-01-11 20:10:00,54.2,48.8,29.96,West,264,0.0,0.0,82,0.00,,---,0.54,VWS V14.01,2013-01-12 01:10:00,
2013-01-11 20:15:00,54.1,48.7,29.96,West,264,0.0,0.0,82,0.00,,---,0.54,VWS V14.01,2013-01-12 01:15:00,
2013-01-11 20:20:00,53.8,48.4,29.96,West,264,0.0,0.0,82,0.00,,---,0.54,VWS V14.01,2013-01-12 01:20:00,
2013-01-11 20:25:00,53.7,48.7,29.96,West,264,0.0,0.0,83,0.00,,---,0.54,VWS V14.01,2013-01-12 01:25:00,
2013-01-11 20:30:00,53.5,48.5,29.96,West,264,0.0,1.0,83,0.00,,---,0.54,VWS V14.01,2013-01-12 01:30:00,
2013-01-11 20:35:00,53.1,48.4,29.96,West,264,0.0,0.0,84,0.00,,---,0.54,VWS V14.01,2013-01-12 01:35:00,
2013-01-11 20:40:00,52.7,48.0,29.96,West,264,0.0,0.0,84,0.00,,---,0.54,VWS V14.01,2013-01-12 01:40:00,
2013-01-11 20:45:00,52.3,47.6,29.96,West,264,0.0,0.0,84,0.00,,---,0.54,VWS V14.01,2013-01-12 01:45:00,
2013-01-11 20:50:00,52.1,47.7,29.96,West,264,0.0,0.0,85,0.00,,---,0.54,VWS V14.01,2013-01-12 01:50:00,
2013-01-11 20:55:00,52.2,48.2,29.96,West,264,0.0,0.0,86,0.00,,---,0.54,VWS V14.01,2013-01-12 01:55:00,
2013-01-11 21:00:00,52.2,48.2,29.96,West,264,0.0,0.0,86,0.00,,---,0.54,VWS V14.01,2013-01-12 02:00:00,
2013-01-11 21:05:00,52.2,48.2,29.96,West,264,0.0,0.0,86,0.00,,---,0.54,VWS V14.01,2013-01-12 02:05:00,
2013-01-11 21:10:00,52.1,47.7,29.96,West,264,0.0,0.0,85,0.00,,---,0.54,VWS V14.01,2013-01-12 02:10:00,
2013-01-11 21:15:00,52.1,48.0,29.96,West,264,0.0,0.0,86,0.00,,---,0.54,VWS V14.01,2013-01-12 02:15:00,
2013-01-11 21:20:00,52.1,48.0,29.96,West,264,0.0,0.0,86,0.00,,---,0.54,VWS V14.01,2013-01-12 02:20:00,
2013-01-11 21:25:00,52.1,48.0,29.96,West,264,0.0,0.0,86,0.00,,---,0.54,VWS V14.01,2013-01-12 02:25:00,
2013-01-11 21:30:00,52.0,48.0,29.96,West,264,0.0,1.0,86,0.00,,---,0.54,VWS V14.01,2013-01-12 02:30:00,
2013-01-11 21:35:00,52.0,48.0,29.96,West,264,0.0,0.0,86,0.00,,---,0.54,VWS V14.01,2013-01-12 02:35:00,
2013-01-11 21:40:00,52.3,48.2,29.96,West,264,0.0,2.0,86,0.00,,---,0.54,VWS V14.01,2013-01-12 02:40:00,
2013-01-11 21:45:00,52.4,48.0,29.96,West,264,0.0,2.0,85,0.00,,---,0.54,VWS V14.01,2013-01-12 02:45:00,
2013-01-11 21:50:00,52.6,48.2,29.96,West,264,0.0,1.0,85,0.00,,---,0.54,VWS V14.01,2013-01-12 02:50:00,
2013-01-11 21:55:00,52.6,48.2,29.96,West,263,0.0,1.0,85,0.00,,---,0.54,VWS V14.01,2013-01-12 02:55:00,
2013-01-11 22:00:00,52.9,48.5,29.96,SW,232,0.0,1.0,85,0.00,,---,0.54,VWS V14.01,2013-01-12 03:00:00,
2013-01-11 22:05:00,53.1,48.4,29.96,SW,232,0.0,0.0,84,0.00,,---,0.54,VWS V14.01,2013-01-12 03:05:00,
2013-01-11 22:10:00,52.8,48.1,29.96,SW,232,0.0,0.0,84,0.00,,---,0.54,VWS V14.01,2013-01-12 03:10:00,
2013-01-11 22:15:00,52.8,48.4,29.96,SW,232,0.0,0.0,85,0.00,,---,0.54,VWS V14.01,2013-01-12 03:15:00,
2013-01-11 22:20:00,52.6,48.2,29.96,SW,232,0.0,0.0,85,0.00,,---,0.54,VWS V14.01,2013-01-12 03:20:00,
2013-01-11 22:25:00,52.5,48.4,29.96,SW,232,0.0,0.0,86,0.00,,---,0.54,VWS V14.01,2013-01-12 03:25:00,
2013-01-11 22:30:00,52.4,48.3,29.97,SW,232,0.0,1.0,86,0.00,,---,0.54,VWS V14.01,2013-01-12 03:30:00,
2013-01-11 22:35:00,52.2,48.2,29.97,SW,232,0.0,1.0,86,0.00,,---,0.54,VWS V14.01,2013-01-12 03:35:00,
2013-01-11 22:40:00,52.1,48.0,29.97,SW,232,0.0,0.0,86,0.00,,---,0.54,VWS V14.01,2013-01-12 03:40:00,
2013-01-11 22:45:00,52.0,48.3,29.96,SW,232,0.0,1.0,87,0.00,,---,0.54,VWS V14.01,2013-01-12 03:45:00,
2013-01-11 22:50:00,51.9,48.2,29.96,SW,231,3.0,3.0,87,0.00,,---,0.54,VWS V14.01,2013-01-12 03:50:00,
2013-01-11 22:55:00,52.4,49.0,29.96,SW,231,0.0,0.0,88,0.00,,---,0.54,VWS V14.01,2013-01-12 03:55:00,
2013-01-11 23:00:00,52.5,48.8,29.96,SW,231,0.0,0.0,87,0.00,,---,0.54,VWS V14.01,2013-01-12 04:00:00,
2013-01-11 23:05:00,52.3,48.5,29.96,SW,231,0.0,0.0,87,0.00,,---,0.54,VWS V14.01,2013-01-12 04:05:00,
2013-01-11 23:10:00,52.1,48.7,29.96,SW,231,0.0,0.0,88,0.00,,---,0.54,VWS V14.01,2013-01-12 04:10:00,
2013-01-11 23:15:00,52.2,48.8,29.96,SW,231,0.0,0.0,88,0.00,,---,0.54,VWS V14.01,2013-01-12 04:15:00,
2013-01-11 23:20:00,52.3,48.9,29.96,SW,231,0.0,1.0,88,0.00,,---,0.54,VWS V14.01,2013-01-12 04:20:00,
2013-01-11 23:25:00,52.3,48.9,29.96,SW,231,0.0,0.0,88,0.00,,---,0.54,VWS V14.01,2013-01-12 04:25:00,
2013-01-11 23:30:00,52.4,49.0,29.96,SW,231,0.0,0.0,88,0.00,,---,0.54,VWS V14.01,2013-01-12 04:30:00,
2013-01-11 23:35:00,52.2,48.8,29.96,SW,231,0.0,1.0,88,0.00,,---,0.54,VWS V14.01,2013-01-12 04:35:00,
2013-01-11 23:40:00,51.8,48.7,29.96,SW,230,0.0,1.0,89,0.00,,---,0.54,VWS V14.01,2013-01-12 04:40:00,
2013-01-11 23:45:00,51.8,49.0,29.96,SW,229,0.0,1.0,90,0.00,,---,0.54,VWS V14.01,2013-01-12 04:45:00,
2013-01-11 23:50:00,51.9,49.1,29.95,SW,229,0.0,1.0,90,0.00,,---,0.54,VWS V14.01,2013-01-12 04:50:00,
2013-01-11 23:55:00,52.2,49.7,29.95,SSW,193,2.0,4.0,91,0.00,,---,0.54,VWS V14.01,2013-01-12 04:55:00,